[[{"header":{"parameterUnit":"m.s-1","parameterCategory":1,"la1":30.2991,"la2":30.254,"lo1":-89.0895,"lo2":-89.0444,"dy":0.0017,"dx":0.0017,"nx":28,"ny":28,"refTime":"2026-03-03T03:00:00:Z","depth":0,"parameterNumber":2,"parameterNumberName":"U-component_of_WINDS"},"data":[0,0,0,0,0,0,0,0,0,0,0,0,0,0,0,0,0,0,0,0,0,0,0,0,0,0,0,0,0,0,0,0,0,0,0,0,0,0,0,0,0,0,0,0,0,0,0,0,0,0,0,0,0,0,0,0,0,0,-5.3031,-5.3032,0,-5.3102,-5.3103,-5.3104,-5.3022,-5.3019,-5.3016,-5.3013,-5.3086,-5.309,-5.3095,0,0,0,0,0,0,0,0,0,0,0,0,0,-5.2825,-5.2829,-5.3031,-5.3032,-5.3033,-5.3102,-5.3103,-5.3104,-5.3023,-5.3019,-5.3015,-5.3012,-5.3084,-5.309,-5.3096,0,0,0,0,0,0,0,0,0,0,0,0,0,-5.2907,-5.2831,-5.3031,-5.3001,-5.2999,-5.3102,-5.3103,-5.3104,-5.3024,-5.3019,-5.3014,-5.301,-5.3082,-5.3089,-5.3096,-5.3233,0,0,-5.3118,-5.3121,0,0,0,0,0,0,0,0,-5.2903,-5.2915,-5.3004,-5.3003,-5.3001,-5.3049,-5.3057,-5.3148,-5.3025,-5.3014,-5.3013,-5.3008,-5.3077,-5.3084,-5.3108,-5.3236,-5.3239,-5.3119,-5.3123,-5.3126,-5.3128,0,0,0,0,0,0,0,-5.2897,-5.2911,-5.3059,-5.3006,-5.3004,-5.2984,-5.299,-5.3074,-5.3071,-5.3015,-5.3009,-5.3019,-5.3075,-5.3101,-5.3109,-5.324,-5.3119,-5.3125,-5.313,-5.3132,-5.3486,-5.3491,0,0,0,0,0,0,-5.2895,-5.2907,-5.3057,-5.3061,-5.2939,-5.2991,-5.2999,-5.3038,-5.3069,-5.307,-5.3022,-5.3015,-5.3091,-5.3101,-5.3111,-5.3273,-5.3126,-5.3133,-5.3137,-5.3481,-5.3487,-5.3493,0,0,0,0,0,0,-5.2891,-5.2909,-5.3054,-5.2983,-5.3,-5.3,-5.3045,-5.3042,-5.3067,-5.3075,-5.3074,-5.3049,-5.3088,-5.3101,-5.3204,-5.3274,-5.3136,-5.3143,-5.3475,-5.3483,-5.349,-5.3598,0,0,0,0,0,0,-5.2885,-5.2908,-5.2959,-5.2985,-5.3004,-5.3145,-5.3049,-5.3047,-5.308,-5.3071,-5.31,-5.3101,-5.3085,-5.3193,-5.3211,-5.3282,-5.3148,-5.3468,-5.3478,-5.3487,-5.3588,-5.3609,-5.3626,0,0,0,0,0,-5.2878,-5.2986,-5.2962,-5.2981,-5.3068,-5.3149,-5.316,-5.314,-5.3086,-5.3138,-5.3144,-5.31,-5.3265,-5.3205,-5.3223,-5.3298,-5.3464,-5.3476,-5.3487,-5.358,-5.3605,-5.3626,0,0,0,0,0,0,-5.2968,-5.2989,-5.2962,-5.3082,-5.3115,-5.3135,-5.3199,-5.3167,-5.3215,-5.3204,-5.3178,-5.3185,-5.3294,-5.3307,-5.3239,-5.3433,-5.3355,-5.3371,-5.342,-5.3443,-5.3462,-5.3456,-5.3154,0,0,0,0,0,-5.3003,-5.3067,-5.3081,-5.3186,-5.3204,-5.32,-5.3234,-5.3216,-5.3249,-5.3262,-5.3274,-5.3308,-5.3367,-5.3406,-5.3461,-5.3591,-5.3596,-5.3652,-5.3671,-5.3686,-5.3699,-5.3769,-5.3794,-5.353,-5.353,-5.353,0,0,-5.3073,-5.3092,-5.3134,-5.3204,-5.3227,-5.3295,-5.3211,-5.3285,-5.3335,-5.3273,-5.337,-5.3382,-5.3417,-5.3534,-5.3586,-5.3547,-5.3774,-5.3701,-5.3713,-5.3718,-5.3784,-5.3809,-5.3831,-5.3538,-5.3537,-5.3535,0,0,-5.3235,-5.3256,-5.3346,-5.3371,-5.3408,-5.3405,-5.3427,-5.3454,-5.3459,-5.3556,-5.3512,-5.3571,-5.3674,-5.3701,-5.3728,-5.3905,-5.3867,-5.3924,-5.4022,-5.4091,-5.4111,-5.413,-5.4192,-5.4215,-5.3938,-5.3938,-5.3938,0,-5.3317,-5.3416,-5.3396,-5.3474,-5.3506,-5.3455,-5.3546,-5.3572,-5.3625,-5.3648,-5.3605,-5.3734,-5.3754,-5.3877,-5.3921,-5.3945,-5.3969,-5.3919,-5.411,-5.4128,-5.4145,-5.4204,-5.4228,-5.3945,-5.3944,-5.3943,-5.3943,0,-5.3516,-5.3586,-5.3654,-5.3707,-5.3748,-5.3832,-5.3825,-5.3869,-5.3849,-5.3851,-5.3952,-5.3975,-5.4034,-5.4063,-5.4044,-5.4184,-5.4159,-5.4114,-5.4035,-5.4177,-5.4232,-5.4255,-5.3954,-5.3952,-5.395,-5.3948,0,0,-5.3732,-5.3776,-5.3801,-5.3825,-5.3864,-5.3918,-5.4001,-5.406,-5.4098,-5.4137,-5.4206,-5.4296,-5.4255,-5.4286,-5.427,-5.4331,-5.447,-5.4278,-5.4278,-5.4312,-5.4626,-5.4658,-5.4684,-5.4446,-5.445,-5.4454,-5.4622,0,-5.3894,-5.4037,-5.4023,-5.4159,-5.4224,-5.4179,-5.4251,-5.4283,-5.4288,-5.4344,-5.435,-5.4414,-5.4355,-5.4374,-5.4433,-5.444,-5.4532,-5.4428,-5.4509,-5.4512,-5.4499,-5.4713,-5.4747,-5.4905,-5.4644,-5.4647,-5.465,0,-5.4101,-5.4149,-5.4292,-5.4323,-5.4349,-5.4414,-5.4468,-5.4523,-5.4559,-5.4559,-5.4596,-5.457,-5.4654,-5.4577,-5.4693,-5.4623,-5.4656,-5.4665,-5.4671,-5.4675,-5.4587,-5.4722,-5.4954,-5.4977,-5.4684,-5.4681,-5.4679,0,-5.4243,-5.4344,-5.4442,-5.4465,-5.4503,-5.455,-5.4569,-5.46,-5.4638,-5.4685,-5.4709,-5.4766,-5.4797,-5.4842,-5.4833,-5.4778,-5.4951,-5.4873,-5.4953,-5.4953,-5.4989,-5.4986,-5.5228,-5.5014,-5.5014,-5.5013,-5.5013,0,-5.4423,-5.4512,-5.4507,-5.4567,-5.4667,-5.4651,-5.4749,-5.4762,-5.4791,-5.4854,-5.4819,-5.4878,-5.4864,-5.4924,-5.4918,-5.5014,-5.5029,-5.5031,-5.5028,-5.5033,-5.5032,-5.5051,-5.5039,-5.502,-5.5018,-5.5017,-5.5016,0,-5.4597,-5.4597,-5.4702,-5.4731,-5.4741,-5.4812,-5.4837,-5.4895,-5.4899,-5.4979,-5.4997,-5.5003,-5.5072,-5.5068,-5.5146,-5.5142,-5.5261,-5.5246,-5.5248,-5.5244,-5.5324,-5.5316,-5.5584,-5.5618,-5.5385,-5.5387,-5.5389,0,-5.4711,-5.4778,-5.4816,-5.4856,-5.4877,-5.4942,-5.498,-5.4969,-5.501,-5.5058,-5.511,-5.5176,-5.5227,-5.5339,-5.5351,-5.541,-5.5395,-5.5486,-5.5404,-5.5407,-5.5395,-5.539,-5.5397,-5.5501,-5.5503,-5.5505,-5.5507,0,-5.4912,-5.491,-5.4966,-5.5025,-5.5072,-5.5116,-5.5157,-5.5192,-5.5185,-5.5233,-5.5303,-5.5344,-5.5424,-5.549,-5.5548,-5.5566,-5.5536,-5.5534,-5.5555,-5.5559,-5.5557,-5.5558,-5.529,-5.5527,-5.5525,-5.5523,-5.5522,-5.5521,-5.5058,-5.5116,-5.5153,-5.5217,-5.5248,-5.5288,-5.5344,-5.5356,-5.5414,-5.5479,-5.5469,-5.5548,-5.5585,-5.5659,-5.5684,-5.5746,-5.5714,-5.5745,-5.5752,-5.576,-5.5768,-5.555,-5.5757,-5.5756,-5.5756,-5.5755,-5.5755,0,-5.5256,-5.5278,-5.5338,-5.5398,-5.5449,-5.5419,-5.5463,-5.5508,-5.5578,-5.5616,-5.5668,-5.575,-5.5814,-5.5833,-5.5895,-5.5941,-5.5929,-5.5957,-5.5952,-5.5957,-5.5794,-5.5768,-5.5966,-5.5966,-5.5966,-5.5966,-5.5966,-5.5966,-5.5365,-5.5462,-5.5465,-5.5578,-5.5599,-5.5676,-5.5705,-5.5742,-5.5772,-5.5865,-5.5918,-5.5931,-5.5961,-5.6026,-5.6084,-5.6088,-5.6111,-5.6146,-5.6144,-5.599,-5.5969,-5.5948,-5.5924,-5.6152,-5.6152,-5.6302,-5.6303,-5.6304]},{"header":{"parameterUnit":"m.s-1","parameterCategory":1,"la1":30.2991,"la2":30.254,"lo1":-89.0895,"lo2":-89.0444,"dy":0.0017,"dx":0.0017,"nx":28,"ny":28,"refTime":"2026-03-03T03:00:00:Z","depth":0,"parameterNumber":3,"parameterNumberName":"V-component_of_WINDS"},"data":[0,0,0,0,0,0,0,0,0,0,0,0,0,0,0,0,0,0,0,0,0,0,0,0,0,0,0,0,0,0,0,0,0,0,0,0,0,0,0,0,0,0,0,0,0,0,0,0,0,0,0,0,0,0,0,0,0,0,1.4489,1.4489,0,1.454,1.4541,1.4541,1.4575,1.4575,1.4575,1.4575,1.4625,1.4626,1.4627,0,0,0,0,0,0,0,0,0,0,0,0,0,1.4419,1.442,1.4488,1.4489,1.449,1.454,1.4541,1.4541,1.4575,1.4575,1.4575,1.4575,1.4625,1.4626,1.4627,0,0,0,0,0,0,0,0,0,0,0,0,0,1.4458,1.442,1.4488,1.4513,1.4515,1.454,1.4541,1.4541,1.4575,1.4575,1.4575,1.4576,1.4624,1.4626,1.4628,1.4631,0,0,1.4633,1.4633,0,0,0,0,0,0,0,0,1.4455,1.446,1.4508,1.4511,1.4514,1.4551,1.4534,1.4571,1.4574,1.4552,1.4575,1.4576,1.46,1.4604,1.4613,1.4634,1.4636,1.4633,1.4634,1.4635,1.4635,0,0,0,0,0,0,0,1.4453,1.4458,1.4509,1.4509,1.4512,1.4521,1.4527,1.4542,1.4573,1.4554,1.4557,1.4562,1.4602,1.4611,1.4614,1.4636,1.4633,1.4634,1.4635,1.4636,1.4666,1.4666,0,0,0,0,0,0,1.4446,1.4456,1.4507,1.451,1.4485,1.4522,1.4528,1.4539,1.4573,1.4579,1.4562,1.4564,1.4608,1.4612,1.4616,1.4624,1.4635,1.4636,1.4637,1.4666,1.4666,1.4666,0,0,0,0,0,0,1.4445,1.4451,1.4505,1.4484,1.4491,1.4523,1.4534,1.454,1.4549,1.458,1.4585,1.4566,1.4608,1.4614,1.4628,1.4627,1.4637,1.4638,1.4667,1.4666,1.4666,1.464,0,0,0,0,0,0,1.4443,1.445,1.4451,1.4484,1.4492,1.4516,1.4534,1.4541,1.4552,1.4555,1.4584,1.459,1.4609,1.4625,1.463,1.4629,1.464,1.4667,1.4667,1.4666,1.4641,1.4639,1.4637,0,0,0,0,0,1.444,1.4441,1.4451,1.4457,1.4495,1.4516,1.4521,1.4544,1.4552,1.4554,1.4574,1.4589,1.4626,1.4627,1.4632,1.4631,1.4667,1.4667,1.4666,1.4642,1.4639,1.4637,0,0,0,0,0,0,1.4405,1.4445,1.4457,1.4468,1.4489,1.4522,1.4525,1.454,1.4558,1.456,1.4587,1.4593,1.4606,1.462,1.462,1.4638,1.4648,1.4649,1.4628,1.4626,1.4624,1.462,1.4641,0,0,0,0,0,1.4399,1.4414,1.4447,1.4454,1.4464,1.4493,1.4503,1.4519,1.4541,1.4549,1.457,1.4591,1.4607,1.4617,1.4634,1.4644,1.4651,1.4646,1.4644,1.4642,1.4642,1.4651,1.4649,1.4664,1.4664,1.4664,0,0,1.4386,1.441,1.4417,1.4448,1.4466,1.448,1.4499,1.4513,1.4524,1.4551,1.4567,1.4583,1.4608,1.4621,1.4627,1.4633,1.464,1.4642,1.464,1.4641,1.465,1.4649,1.4648,1.4664,1.4664,1.4664,0,0,1.437,1.4389,1.4398,1.4416,1.4444,1.4464,1.4466,1.4497,1.451,1.4526,1.4548,1.4561,1.4589,1.4606,1.4619,1.4613,1.4628,1.4618,1.4607,1.4615,1.4613,1.4613,1.4612,1.4611,1.4618,1.4618,1.4618,0,1.435,1.4374,1.44,1.4414,1.4428,1.4455,1.4465,1.4481,1.4512,1.4521,1.4527,1.4565,1.4583,1.4601,1.46,1.4609,1.4613,1.4614,1.4612,1.4611,1.461,1.461,1.461,1.4617,1.4617,1.4617,1.4617,0,1.4349,1.4365,1.4369,1.44,1.4415,1.4426,1.4455,1.4466,1.4482,1.4501,1.4519,1.4542,1.4566,1.4571,1.4586,1.4593,1.4596,1.4606,1.4617,1.4607,1.4608,1.4608,1.4615,1.4615,1.4616,1.4616,0,0,1.431,1.4359,1.436,1.4376,1.441,1.4423,1.4437,1.4461,1.4471,1.4492,1.4505,1.4529,1.454,1.4555,1.4572,1.4579,1.4576,1.4589,1.459,1.4587,1.4586,1.4578,1.4578,1.4586,1.4586,1.4586,1.4585,0,1.43,1.4327,1.4353,1.437,1.4386,1.4414,1.4426,1.4448,1.4467,1.4484,1.4505,1.4522,1.4535,1.4544,1.4552,1.4574,1.4576,1.4575,1.4598,1.4599,1.4592,1.4578,1.4569,1.4566,1.4585,1.4585,1.4585,0,1.4291,1.4314,1.4333,1.4369,1.4376,1.4387,1.4413,1.4428,1.4455,1.4468,1.4486,1.4505,1.4522,1.4531,1.4555,1.4554,1.4565,1.4578,1.4578,1.4581,1.4591,1.4581,1.4566,1.4565,1.4585,1.4585,1.4585,0,1.4263,1.4298,1.4315,1.4327,1.4369,1.4376,1.4393,1.442,1.4434,1.4457,1.4467,1.449,1.4503,1.4521,1.4547,1.4551,1.4569,1.458,1.4581,1.458,1.4583,1.4582,1.457,1.4589,1.4589,1.4589,1.4589,0,1.4249,1.426,1.4303,1.4313,1.4328,1.4358,1.4371,1.4391,1.4415,1.443,1.4455,1.4469,1.4502,1.4519,1.4539,1.4557,1.4562,1.4574,1.4579,1.4572,1.4571,1.458,1.4581,1.4589,1.4589,1.4589,1.4589,0,1.4219,1.4248,1.4269,1.4308,1.4318,1.4326,1.436,1.4371,1.4393,1.4412,1.4418,1.4452,1.4474,1.4502,1.4532,1.4546,1.4562,1.457,1.4553,1.4557,1.4557,1.4557,1.455,1.4551,1.4569,1.4569,1.4568,0,1.4208,1.4218,1.4259,1.4272,1.4289,1.4308,1.4324,1.4355,1.437,1.4403,1.4411,1.4436,1.4457,1.4492,1.4519,1.4543,1.4552,1.4548,1.4556,1.4549,1.4553,1.4553,1.4555,1.4546,1.4545,1.4545,1.4545,0,1.4187,1.4202,1.4223,1.4251,1.4269,1.4292,1.4316,1.4324,1.436,1.4376,1.44,1.4417,1.4451,1.4475,1.4504,1.4522,1.454,1.4543,1.4544,1.4537,1.4528,1.4534,1.4549,1.4542,1.4543,1.4543,1.4543,1.4543,1.4167,1.4178,1.4209,1.4233,1.4255,1.4278,1.4291,1.4316,1.4337,1.4368,1.4385,1.4409,1.4438,1.4478,1.4496,1.4516,1.4522,1.4524,1.4525,1.4525,1.4523,1.4525,1.4521,1.4521,1.4521,1.4521,1.4521,0,1.4148,1.417,1.4192,1.4226,1.4246,1.4263,1.4291,1.4306,1.4327,1.4353,1.4375,1.4404,1.4429,1.4459,1.4486,1.4497,1.4506,1.4503,1.4502,1.4507,1.4515,1.4512,1.4495,1.4495,1.4495,1.4495,1.4495,1.4495,1.414,1.4161,1.418,1.4212,1.4234,1.4259,1.4274,1.4295,1.4317,1.4349,1.437,1.4391,1.4419,1.4449,1.4473,1.4481,1.449,1.4485,1.4496,1.4503,1.4506,1.4508,1.4505,1.4487,1.4487,1.4486,1.4486,1.4486]}]]